When you browse on this site, cookies collect data to enhance your experience and personalize the content and advertising you see.
Visit our Privacy Policy to learn more. By continuing to use the site, you agree to this use of cookies and data.
  • In Hungary
  • List of Countries
  • For 7 days
  • Water Temperature
  • Weather Map
  • News
  • Weather Widgets
  • user-avatar
    Login

    Hourly Weather Arauquita

    Today, 10 December, Tuesday

    Time Temperature Precipitation Wind Pressure Humidity
    00:00 +24°C° 0.1 mm 1 mps 745 mmHg 94%
    01:00 +24°C° 0.1 mm 1 mps 745 mmHg 95%
    02:00 +23°C° 0 mm 1 mps 745 mmHg 96%
    03:00 +23°C° 0 mm 1 mps 745 mmHg 96%
    04:00 +23°C° 0 mm 1 mps 745 mmHg 97%
    05:00 +24°C° 0 mm 1 mps 745 mmHg 94%
    06:00 +24°C° 0 mm 1 mps 746 mmHg 91%
    07:00 +25°C° 0 mm 1 mps 746 mmHg 87%
    08:00 +27°C° 0 mm 1 mps 747 mmHg 76%
    09:00 +30°C° 0 mm 1 mps 747 mmHg 64%
    10:00 +32°C° 0 mm 2 mps 747 mmHg 52%
    11:00 +32°C° 0.2 mm 2 mps 746 mmHg 54%
    12:00 +32°C° 0.2 mm 2 mps 745 mmHg 55%
    13:00 +34°C° 0.2 mm 2 mps 744 mmHg 57%
    14:00 +32°C° 0.1 mm 2 mps 744 mmHg 58%
    15:00 +32°C° 0.1 mm 1 mps 743 mmHg 58%
    16:00 +32°C° 0.1 mm 1 mps 743 mmHg 59%
    17:00 +30°C° 0 mm 1 mps 743 mmHg 67%
    18:00 +28°C° 0 mm 1 mps 744 mmHg 76%
    19:00 +24°C° 0 mm 0 mps 745 mmHg 85%
    20:00 +24°C° 0 mm 0 mps 745 mmHg 87%
    21:00 +23°C° 0 mm 0 mps 746 mmHg 89%
    22:00 +23°C° 0 mm 0 mps 746 mmHg 91%
    23:00 +22°C° 0 mm 0 mps 746 mmHg 92%

    Tomorrow, 11 December, Wednesday

    Time Temperature Precipitation Wind Pressure Humidity
    00:00 +24°C° 0 mm 1 mps 745 mmHg 93%
    01:00 +24°C° 0 mm 1 mps 745 mmHg 93%
    02:00 +24°C° 0 mm 1 mps 745 mmHg 94%
    03:00 +23°C° 0 mm 1 mps 745 mmHg 95%
    04:00 +23°C° 0 mm 1 mps 745 mmHg 95%
    05:00 +24°C° 0 mm 1 mps 745 mmHg 93%
    06:00 +24°C° 0 mm 1 mps 746 mmHg 90%
    07:00 +24°C° 0 mm 1 mps 746 mmHg 87%
    08:00 +27°C° 0 mm 1 mps 746 mmHg 76%
    09:00 +29°C° 0 mm 1 mps 747 mmHg 65%
    10:00 +32°C° 0 mm 1 mps 747 mmHg 54%
    11:00 +32°C° 0 mm 1 mps 746 mmHg 52%
    12:00 +34°C° 0 mm 2 mps 745 mmHg 49%
    13:00 +34°C° 0 mm 2 mps 744 mmHg 47%
    14:00 +34°C° 0 mm 2 mps 744 mmHg 50%
    15:00 +32°C° 0 mm 1 mps 743 mmHg 53%
    16:00 +32°C° 0 mm 1 mps 742 mmHg 56%
    17:00 +30°C° 0 mm 1 mps 743 mmHg 64%
    18:00 +28°C° 0 mm 1 mps 743 mmHg 72%
    19:00 +26°C° 0 mm 1 mps 744 mmHg 81%
    20:00 +25°C° 0 mm 1 mps 744 mmHg 83%
    21:00 +25°C° 0 mm 1 mps 745 mmHg 85%
    22:00 +24°C° 0 mm 1 mps 745 mmHg 87%
    23:00 +22°C° 0 mm 0 mps 745 mmHg 88%

    Day after tomorrow, 12 December, Thursday

    Time Temperature Precipitation Wind Pressure Humidity
    00:00 +22°C° 0 mm 0 mps 744 mmHg 89%
    01:00 +22°C° 0 mm 0 mps 744 mmHg 90%
    02:00 +23°C° 0 mm 1 mps 744 mmHg 90%
    03:00 +23°C° 0 mm 1 mps 744 mmHg 91%
    04:00 +23°C° 0 mm 1 mps 743 mmHg 91%
    05:00 +24°C° 0 mm 1 mps 744 mmHg 88%
    06:00 +24°C° 0 mm 1 mps 744 mmHg 85%
    07:00 +25°C° 0 mm 1 mps 745 mmHg 82%
    08:00 +27°C° 0 mm 1 mps 745 mmHg 72%
    09:00 +30°C° 0 mm 1 mps 745 mmHg 63%
    10:00 +32°C° 0 mm 2 mps 745 mmHg 53%
    11:00 +34°C° 0 mm 2 mps 744 mmHg 51%
    12:00 +34°C° 0 mm 2 mps 744 mmHg 49%
    13:00 +35°C° 0 mm 2 mps 743 mmHg 48%
    14:00 +34°C° 0 mm 2 mps 742 mmHg 50%
    15:00 +34°C° 0 mm 2 mps 742 mmHg 53%
    16:00 +32°C° 0 mm 2 mps 741 mmHg 56%
    17:00 +30°C° 0.1 mm 1 mps 742 mmHg 65%
    18:00 +28°C° 0.1 mm 1 mps 742 mmHg 74%
    19:00 +26°C° 0.1 mm 1 mps 743 mmHg 84%
    20:00 +26°C° 0.3 mm 1 mps 743 mmHg 87%
    21:00 +23°C° 0.3 mm 0 mps 744 mmHg 90%
    22:00 +23°C° 0.3 mm 0 mps 744 mmHg 93%
    23:00 +24°C° 0.3 mm 1 mps 744 mmHg 94%

    13 December, Friday

    Time Temperature Precipitation Wind Pressure Humidity
    00:00 +24°C° 0.3 mm 1 mps 744 mmHg 95%
    01:00 +24°C° 0.3 mm 1 mps 744 mmHg 96%
    02:00 +24°C° 0.1 mm 1 mps 743 mmHg 96%
    03:00 +23°C° 0.1 mm 1 mps 743 mmHg 96%
    04:00 +23°C° 0.1 mm 1 mps 743 mmHg 97%
    05:00 +23°C° 0.1 mm 1 mps 743 mmHg 94%
    06:00 +24°C° 0.1 mm 1 mps 744 mmHg 92%
    07:00 +24°C° 0.1 mm 1 mps 744 mmHg 90%
    08:00 +26°C° 0 mm 1 mps 745 mmHg 79%
    09:00 +29°C° 0 mm 1 mps 745 mmHg 68%
    10:00 +31°C° 0 mm 1 mps 745 mmHg 57%
    11:00 +32°C° 0.1 mm 1 mps 744 mmHg 55%
    12:00 +32°C° 0.1 mm 1 mps 744 mmHg 54%
    13:00 +33°C° 0.1 mm 1 mps 743 mmHg 52%
    14:00 +32°C° 0 mm 1 mps 742 mmHg 54%
    15:00 +32°C° 0 mm 1 mps 742 mmHg 56%
    16:00 +32°C° 0 mm 1 mps 742 mmHg 59%
    17:00 +30°C° 0 mm 1 mps 742 mmHg 66%
    18:00 +28°C° 0 mm 1 mps 742 mmHg 74%
    19:00 +24°C° 0 mm 0 mps 743 mmHg 82%
    20:00 +24°C° 0 mm 0 mps 744 mmHg 84%
    21:00 +23°C° 0 mm 0 mps 744 mmHg 87%
    22:00 +23°C° 0 mm 0 mps 745 mmHg 89%
    23:00 +22°C° 0.2 mm 0 mps 744 mmHg 91%

    14 December, Saturday

    Time Temperature Precipitation Wind Pressure Humidity
    00:00 +22°C° 0.2 mm 0 mps 744 mmHg 93%
    01:00 +24°C° 0.2 mm 1 mps 743 mmHg 94%
    02:00 +23°C° 0.1 mm 1 mps 743 mmHg 95%
    03:00 +23°C° 0.1 mm 1 mps 743 mmHg 96%
    04:00 +23°C° 0.1 mm 1 mps 743 mmHg 97%
    05:00 +23°C° 0 mm 1 mps 744 mmHg 94%
    06:00 +24°C° 0 mm 1 mps 744 mmHg 91%
    07:00 +24°C° 0 mm 1 mps 745 mmHg 88%
    08:00 +27°C° 0 mm 1 mps 745 mmHg 77%
    09:00 +30°C° 0 mm 1 mps 745 mmHg 66%
    10:00 +32°C° 0 mm 1 mps 746 mmHg 55%
    11:00 +32°C° 0.2 mm 1 mps 745 mmHg 55%
    12:00 +33°C° 0.2 mm 1 mps 744 mmHg 55%
    13:00 +33°C° 0.2 mm 1 mps 743 mmHg 55%
    14:00 +32°C° 0.2 mm 1 mps 743 mmHg 59%
    15:00 +32°C° 0.2 mm 1 mps 742 mmHg 64%
    16:00 +31°C° 0.2 mm 1 mps 742 mmHg 68%
    17:00 +29°C° 0.1 mm 1 mps 742 mmHg 75%
    18:00 +28°C° 0.1 mm 1 mps 743 mmHg 82%
    19:00 +24°C° 0.1 mm 0 mps 744 mmHg 89%
    20:00 +23°C° 0.5 mm 0 mps 744 mmHg 91%
    21:00 +23°C° 0.5 mm 0 mps 745 mmHg 94%
    22:00 +24°C° 0.5 mm 1 mps 745 mmHg 96%
    23:00 +22°C° 0.7 mm 0 mps 745 mmHg 96%

    15 December, Sunday

    Time Temperature Precipitation Wind Pressure Humidity
    00:00 +22°C° 0.7 mm 0 mps 745 mmHg 97%
    01:00 +22°C° 0.7 mm 0 mps 744 mmHg 97%
    02:00 +23°C° 1 mm 1 mps 744 mmHg 97%
    03:00 +23°C° 1 mm 1 mps 744 mmHg 98%
    04:00 +23°C° 1 mm 1 mps 744 mmHg 98%
    05:00 +23°C° 0.3 mm 1 mps 745 mmHg 97%
    06:00 +24°C° 0.3 mm 1 mps 745 mmHg 96%
    07:00 +24°C° 0.3 mm 1 mps 746 mmHg 96%
    08:00 +26°C° 0.5 mm 1 mps 746 mmHg 90%
    09:00 +28°C° 0.5 mm 1 mps 746 mmHg 85%
    10:00 +28°C° 0.5 mm 0 mps 746 mmHg 79%
    11:00 +30°C° 0.6 mm 1 mps 746 mmHg 74%
    12:00 +31°C° 0.6 mm 1 mps 745 mmHg 69%
    13:00 +32°C° 0.6 mm 1 mps 744 mmHg 64%
    14:00 +32°C° 0.1 mm 1 mps 743 mmHg 64%
    15:00 +32°C° 0.1 mm 1 mps 743 mmHg 64%
    16:00 +31°C° 0.1 mm 1 mps 743 mmHg 63%
    17:00 +29°C° 0.1 mm 1 mps 743 mmHg 72%
    18:00 +28°C° 0.1 mm 1 mps 744 mmHg 81%
    19:00 +26°C° 0.1 mm 1 mps 744 mmHg 90%
    20:00 +25°C° 0 mm 1 mps 745 mmHg 92%
    21:00 +25°C° 0 mm 1 mps 745 mmHg 93%
    22:00 +25°C° 0 mm 1 mps 746 mmHg 94%
    23:00 +24°C° 0 mm 1 mps 746 mmHg 95%
    Show more